Volver al catálogo

DELTA 1 DEB

ActivoLEO
NORAD 7085·DEBRIS·🇺🇸 United States

Lanzado Nov 6, 1973 desde Vandenberg Space Force Base

Loading…

Próximos Pases (próximas 24 horas)

TLE

ActualizadoSource: Space-Track

Época: Sep 14, 2026, 06:02 UTC

1 07085U 73086CD  26257.25174713  .00000027  00000-0  42106-3 0  9991
2 07085 102.1832  59.9092 0097515  41.2562 132.6136 12.60298599427354

Sigue DELTA 1 DEB en tiempo real con AllMySat

Download on the App Store